Tracking 30923 objects as of 1-Jul-2025
HD Live streaming from Space Station
objects crossing your sky now

CZ-4 DEB

Track CZ-4 DEB now!
10-day predictions


NORAD ID: 20888
Int'l Code: 1990-081AY
Perigee: 676.5 km
Apogee: 936.5 km
Inclination: 99.2 °
Period: 100.9 minutes
Semi major axis: 7177 km
RCS: 0.1391 m2 (medium)
Launch date: September 3, 1990
Source: People's Republic of China (PRC)
Launch site: Taiyaun Space Center, China (TSC)

Note: This is SATELLITE DEBRIS
Your satellite tracking list
Your tracking list is empty




NASA's NSSDC Master Catalog

Two Line Element Set (TLE):
1 20888U 90081AY  25181.51021592  .00002867  00000-0  99299-3 0  9990
2 20888  99.2259  21.0772 0181102 169.4423 191.0639 14.27714832776991
Source of the keplerian elements: AFSPC